| time (UTC) | temp F | wind direction | speed MPH | gust MPH | rain 1hr in | rain 24hr in | rain mn in | humidity % | barometer mb |
| 20260510202902 | 47 | 168 | 1.0 | 3.0 | 0.00 | 0.00 | 0.00 | 72 | 1014.4 |
| 20260510202402 | 47 | 291 | 1.0 | 2.0 | 0.00 | 0.00 | 0.00 | 72 | 1014.4 |
| 20260510201902 | 47 | 290 | 1.0 | 2.0 | 0.00 | 0.00 | 0.00 | 71 | 1014.5 |
| 20260510200902 | 48 | 254 | 1.0 | 3.0 | 0.00 | 0.00 | 0.00 | 70 | 1014.7 |
| 20260510200401 | 48 | 273 | 1.0 | 2.0 | 0.00 | 0.00 | 0.00 | 69 | 1014.7 |
| 20260510195902 | 48 | 273 | 0.0 | 2.0 | 0.00 | 0.00 | 0.00 | 68 | 1014.8 |
| 20260510195401 | 48 | 273 | 1.0 | 3.0 | 0.00 | 0.00 | 0.00 | 68 | 1014.8 |
| 20260510194401 | 49 | 266 | 2.0 | 3.0 | 0.00 | 0.00 | 0.00 | 66 | 1014.8 |
| 20260510193402 | 49 | 271 | 3.0 | 6.0 | 0.00 | 0.00 | 0.00 | 64 | 1014.7 |
| 20260510192902 | 49 | 255 | 2.0 | 6.0 | 0.00 | 0.00 | 0.00 | 64 | 1014.7 |
| 20260510192401 | 49 | 301 | 1.0 | 5.0 | 0.00 | 0.00 | 0.00 | 63 | 1014.7 |
| 20260510191901 | 50 | 279 | 2.0 | 6.0 | 0.00 | 0.00 | 0.00 | 63 | 1014.7 |
| 20260510191402 | 50 | 255 | 2.0 | 6.0 | 0.00 | 0.00 | 0.00 | 62 | 1014.7 |
| 20260510190902 | 50 | 261 | 1.0 | 3.0 | 0.00 | 0.00 | 0.00 | 61 | 1014.8 |
| 20260510185902 | 50 | 248 | 2.0 | 5.0 | 0.00 | 0.00 | 0.00 | 59 | 1014.8 |
| 20260510185401 | 50 | 258 | 1.0 | 3.0 | 0.00 | 0.00 | 0.00 | 59 | 1014.9 |
| 20260510184901 | 50 | 258 | 1.0 | 3.0 | 0.00 | 0.00 | 0.00 | 59 | 1015.0 |
| 20260510184402 | 51 | 261 | 1.0 | 3.0 | 0.00 | 0.00 | 0.00 | 58 | 1015.1 |
| 20260510183901 | 51 | 321 | 1.0 | 3.0 | 0.00 | 0.00 | 0.00 | 57 | 1015.1 |
| 20260510183402 | 51 | 291 | 2.0 | 6.0 | 0.00 | 0.00 | 0.00 | 57 | 1015.2 |
| 20260510182401 | 51 | 276 | 1.0 | 3.0 | 0.00 | 0.00 | 0.00 | 58 | 1015.2 |
| 20260510181901 | 51 | 284 | 2.0 | 5.0 | 0.00 | 0.00 | 0.00 | 58 | 1015.2 |
| 20260510181402 | 51 | 273 | 1.0 | 3.0 | 0.00 | 0.00 | 0.00 | 58 | 1015.3 |
| 20260510180901 | 51 | 278 | 2.0 | 5.0 | 0.00 | 0.00 | 0.00 | 58 | 1015.3 |
| 20260510180402 | 52 | 282 | 1.0 | 3.0 | 0.00 | 0.00 | 0.00 | 59 | 1015.4 |
| 20260510175901 | 52 | 252 | 2.0 | 6.0 | 0.00 | 0.00 | 0.00 | 58 | 1015.4 |
| 20260510175401 | 52 | 277 | 1.0 | 1.0 | 0.00 | 0.00 | 0.00 | 58 | 1015.5 |
| 20260510174902 | 52 | 291 | 1.0 | 3.0 | 0.00 | 0.00 | 0.00 | 57 | 1015.5 |
| 20260510174402 | 52 | 281 | 1.0 | 3.0 | 0.00 | 0.00 | 0.00 | 54 | 1015.6 |
| 20260510173901 | 52 | 281 | 1.0 | 2.0 | 0.00 | 0.00 | 0.00 | 54 | 1015.6 |
| 20260510173401 | 53 | 281 | 1.0 | 2.0 | 0.00 | 0.00 | 0.00 | 54 | 1015.6 |
| 20260510172402 | 53 | 281 | 1.0 | 2.0 | 0.00 | 0.00 | 0.00 | 52 | 1015.7 |
| 20260510171902 | 53 | 281 | 1.0 | 2.0 | 0.00 | 0.00 | 0.00 | 52 | 1015.7 |
| 20260510170901 | 53 | 281 | 0.0 | 2.0 | 0.00 | 0.00 | 0.00 | 51 | 1015.9 |
| 20260510165402 | 53 | 330 | 0.0 | 2.0 | 0.00 | 0.00 | 0.00 | 50 | 1016.0 |
| 20260510164901 | 53 | 330 | 0.0 | 2.0 | 0.00 | 0.00 | 0.00 | 51 | 1016.1 |
| 20260510164401 | 53 | 330 | 0.0 | 1.0 | 0.00 | 0.00 | 0.00 | 49 | 1016.2 |
| 20260510163401 | 53 | 302 | 1.0 | 2.0 | 0.00 | 0.00 | 0.00 | 51 | 1016.4 |
| 20260510162901 | 53 | 285 | 1.0 | 2.0 | 0.00 | 0.00 | 0.00 | 50 | 1016.5 |
| 20260510162403 | 53 | 262 | 0.0 | 3.0 | 0.00 | 0.00 | 0.00 | 50 | 1016.6 |
| 20260510161902 | 53 | 221 | 2.0 | 3.0 | 0.00 | 0.00 | 0.00 | 49 | 1016.6 |
| 20260510161401 | 53 | 234 | 0.0 | 3.0 | 0.00 | 0.00 | 0.00 | 50 | 1016.6 |
| 20260510160902 | 54 | 218 | 1.0 | 2.0 | 0.00 | 0.00 | 0.00 | 49 | 1016.8 |
| 20260510160401 | 54 | 216 | 1.0 | 3.0 | 0.00 | 0.00 | 0.00 | 49 | 1016.9 |
| 20260510155902 | 54 | 216 | 0.0 | 2.0 | 0.00 | 0.00 | 0.00 | 49 | 1017.0 |
| 20260510154902 | 54 | 250 | 2.0 | 3.0 | 0.00 | 0.00 | 0.00 | 50 | 1017.1 |
| 20260510154401 | 54 | 282 | 1.0 | 2.0 | 0.00 | 0.00 | 0.00 | 50 | 1017.1 |
| 20260510153902 | 54 | 317 | 0.0 | 2.0 | 0.00 | 0.00 | 0.00 | 49 | 1017.2 |
| 20260510153401 | 54 | 333 | 1.0 | 2.0 | 0.00 | 0.00 | 0.00 | 50 | 1017.3 |
| 20260510152901 | 54 | 120 | 2.0 | 3.0 | 0.00 | 0.00 | 0.00 | 50 | 1017.3 |
| 20260510152401 | 54 | 93 | 1.0 | 7.0 | 0.00 | 0.00 | 0.00 | 50 | 1017.3 |
| 20260510151901 | 54 | 355 | 2.0 | 3.0 | 0.00 | 0.00 | 0.00 | 50 | 1017.5 |
| 20260510150902 | 55 | 151 | 3.0 | 5.0 | 0.00 | 0.00 | 0.00 | 50 | 1017.6 |
| 20260510150401 | 54 | 98 | 2.0 | 3.0 | 0.00 | 0.00 | 0.00 | 51 | 1017.7 |
| 20260510145902 | 54 | 112 | 2.0 | 6.0 | 0.00 | 0.00 | 0.00 | 48 | 1017.7 |
| 20260510145401 | 55 | 104 | 3.0 | 7.0 | 0.00 | 0.00 | 0.00 | 49 | 1017.8 |
| 20260510144901 | 55 | 99 | 4.0 | 8.0 | 0.00 | 0.00 | 0.00 | 48 | 1017.9 |
| 20260510144401 | 56 | 91 | 5.0 | 9.0 | 0.00 | 0.00 | 0.00 | 47 | 1018.0 |
| 20260510143903 | 56 | 82 | 2.0 | 9.0 | 0.00 | 0.00 | 0.00 | 47 | 1018.1 |
| 20260510143401 | 56 | 76 | 3.0 | 7.0 | 0.00 | 0.00 | 0.00 | 46 | 1018.1 |
| 20260510142401 | 56 | 12 | 3.0 | 6.0 | 0.00 | 0.00 | 0.00 | 47 | 1018.4 |
| 20260510141401 | 55 | 119 | 2.0 | 6.0 | 0.00 | 0.00 | 0.00 | 48 | 1018.5 |
| 20260510140902 | 55 | 88 | 1.0 | 3.0 | 0.00 | 0.00 | 0.00 | 50 | 1018.5 |
| 20260510140402 | 54 | 11 | 4.0 | 8.0 | 0.00 | 0.00 | 0.00 | 49 | 1018.7 |
| 20260510135901 | 54 | 240 | 2.0 | 5.0 | 0.00 | 0.00 | 0.00 | 47 | 1018.7 |
| 20260510134901 | 54 | 99 | 1.0 | 5.0 | 0.00 | 0.00 | 0.00 | 49 | 1018.8 |
| 20260510134402 | 54 | 16 | 2.0 | 5.0 | 0.00 | 0.00 | 0.00 | 51 | 1018.9 |
| 20260510133901 | 54 | 59 | 2.0 | 5.0 | 0.00 | 0.00 | 0.00 | 52 | 1019.0 |
| 20260510133402 | 54 | 43 | 2.0 | 8.0 | 0.00 | 0.00 | 0.00 | 52 | 1019.0 |
| 20260510132401 | 54 | 22 | 2.0 | 5.0 | 0.00 | 0.00 | 0.00 | 50 | 1019.1 |
| 20260510131902 | 55 | 11 | 1.0 | 5.0 | 0.00 | 0.00 | 0.00 | 49 | 1019.2 |
| 20260510131401 | 55 | 111 | 3.0 | 8.0 | 0.00 | 0.00 | 0.00 | 51 | 1019.2 |
| 20260510130901 | 54 | 103 | 3.0 | 8.0 | 0.00 | 0.00 | 0.00 | 50 | 1019.3 |
| 20260510130401 | 54 | 26 | 1.0 | 3.0 | 0.00 | 0.00 | 0.00 | 49 | 1019.3 |
| 20260510125902 | 54 | 63 | 1.0 | 6.0 | 0.00 | 0.00 | 0.00 | 50 | 1019.4 |
| 20260510125401 | 53 | 78 | 2.0 | 7.0 | 0.00 | 0.00 | 0.00 | 51 | 1019.4 |
| 20260510124902 | 53 | 106 | 4.0 | 7.0 | 0.00 | 0.00 | 0.00 | 50 | 1019.5 |
| 20260510124402 | 53 | 110 | 3.0 | 7.0 | 0.00 | 0.00 | 0.00 | 52 | 1019.5 |
| 20260510123901 | 53 | 83 | 3.0 | 9.0 | 0.00 | 0.00 | 0.00 | 51 | 1019.5 |
| 20260510123401 | 53 | 58 | 3.0 | 8.0 | 0.00 | 0.00 | 0.00 | 50 | 1019.6 |
| 20260510122902 | 54 | 335 | 1.0 | 7.0 | 0.00 | 0.00 | 0.00 | 51 | 1019.7 |
| 20260510122401 | 54 | 89 | 2.0 | 7.0 | 0.00 | 0.00 | 0.00 | 52 | 1019.8 |
| 20260510121902 | 54 | 19 | 2.0 | 7.0 | 0.00 | 0.00 | 0.00 | 48 | 1019.8 |
| 20260510121402 | 53 | 75 | 1.0 | 5.0 | 0.00 | 0.00 | 0.00 | 51 | 1019.9 |
| 20260510120901 | 53 | 19 | 1.0 | 5.0 | 0.00 | 0.00 | 0.00 | 52 | 1020.0 |
| 20260510120401 | 53 | 37 | 2.0 | 3.0 | 0.00 | 0.00 | 0.00 | 54 | 1020.1 |
| 20260510115901 | 53 | 331 | 1.0 | 5.0 | 0.00 | 0.00 | 0.00 | 52 | 1020.1 |
| 20260510115401 | 52 | 1 | 2.0 | 5.0 | 0.00 | 0.00 | 0.00 | 53 | 1020.1 |
| 20260510114901 | 52 | 7 | 3.0 | 6.0 | 0.00 | 0.00 | 0.00 | 54 | 1020.1 |
| 20260510113901 | 54 | 21 | 5.0 | 8.0 | 0.00 | 0.00 | 0.00 | 55 | 1020.3 |
| 20260510113401 | 54 | 118 | 2.0 | 7.0 | 0.00 | 0.00 | 0.00 | 54 | 1020.3 |
| 20260510112902 | 53 | 271 | 2.0 | 8.0 | 0.00 | 0.00 | 0.00 | 57 | 1020.4 |
| 20260510112401 | 53 | 29 | 3.0 | 7.0 | 0.00 | 0.00 | 0.00 | 57 | 1020.4 |
| 20260510111901 | 53 | 30 | 3.0 | 10.0 | 0.00 | 0.00 | 0.00 | 57 | 1020.5 |
| 20260510111401 | 53 | 62 | 2.0 | 10.0 | 0.00 | 0.00 | 0.00 | 58 | 1020.5 |
| 20260510110901 | 52 | 93 | 5.0 | 10.0 | 0.00 | 0.00 | 0.00 | 59 | 1020.6 |
| 20260510110401 | 52 | 79 | 5.0 | 8.0 | 0.00 | 0.00 | 0.00 | 58 | 1020.7 |
| 20260510105901 | 52 | 73 | 2.0 | 8.0 | 0.00 | 0.00 | 0.00 | 57 | 1020.8 |
| 20260510105403 | 51 | 53 | 3.0 | 8.0 | 0.00 | 0.00 | 0.00 | 62 | 1020.8 |
| 20260510104901 | 50 | 165 | 1.0 | 5.0 | 0.00 | 0.00 | 0.00 | 63 | 1020.9 |
| 20260510103400 | 50 | 22 | 2.0 | 7.0 | 0.00 | 0.00 | 0.00 | 64 | 1021.1 |
| 20260510102402 | 49 | 53 | 0.0 | 7.0 | 0.00 | 0.00 | 0.00 | 66 | 1021.2 |
| 20260510101901 | 49 | 7 | 3.0 | 7.0 | 0.00 | 0.00 | 0.00 | 65 | 1021.2 |
| 20260510101401 | 49 | 1 | 2.0 | 8.0 | 0.00 | 0.00 | 0.00 | 65 | 1021.2 |
| 20260510100902 | 49 | 355 | 2.0 | 3.0 | 0.00 | 0.00 | 0.00 | 64 | 1021.2 |
| 20260510100401 | 49 | 307 | 3.0 | 7.0 | 0.00 | 0.01 | 0.00 | 63 | 1021.3 |
| 20260510095902 | 49 | 125 | 1.0 | 7.0 | 0.00 | 0.01 | 0.00 | 67 | 1021.4 |
| 20260510095401 | 49 | 44 | 1.0 | 7.0 | 0.00 | 0.02 | 0.00 | 66 | 1021.4 |
| 20260510094901 | 49 | 37 | 3.0 | 10.0 | 0.00 | 0.02 | 0.00 | 65 | 1021.4 |
| 20260510094402 | 49 | 88 | 2.0 | 6.0 | 0.00 | 0.05 | 0.00 | 65 | 1021.5 |
| 20260510093901 | 50 | 340 | 3.0 | 7.0 | 0.00 | 0.06 | 0.00 | 65 | 1021.6 |
| 20260510093402 | 50 | 52 | 3.0 | 14.0 | 0.00 | 0.06 | 0.00 | 66 | 1021.6 |
| 20260510092901 | 49 | 353 | 4.0 | 12.0 | 0.00 | 0.06 | 0.00 | 65 | 1021.6 |
| 20260510092401 | 49 | 30 | 3.0 | 8.0 | 0.00 | 0.06 | 0.00 | 65 | 1021.7 |
| 20260510091901 | 49 | 55 | 1.0 | 6.0 | 0.00 | 0.06 | 0.00 | 67 | 1021.8 |
| 20260510091401 | 49 | 33 | 2.0 | 8.0 | 0.00 | 0.06 | 0.00 | 68 | 1021.8 |
| 20260510090901 | 49 | 314 | 2.0 | 7.0 | 0.00 | 0.06 | 0.00 | 68 | 1021.9 |
| 20260510085901 | 48 | 24 | 4.0 | 9.0 | 0.00 | 0.06 | 0.00 | 68 | 1021.9 |
| 20260510085401 | 48 | 189 | 2.0 | 9.0 | 0.00 | 0.06 | 0.00 | 69 | 1021.9 |
| 20260510084901 | 47 | 9 | 3.0 | 8.0 | 0.00 | 0.06 | 0.00 | 69 | 1021.9 |
| 20260510083400 | 48 | 74 | 5.0 | 8.0 | 0.00 | 0.06 | 0.00 | 70 | 1022.0 |
| 20260510082901 | 48 | 37 | 3.0 | 8.0 | 0.00 | 0.06 | 0.00 | 71 | 1022.0 |
| 20260510082401 | 47 | 48 | 1.0 | 7.0 | 0.00 | 0.06 | 0.00 | 72 | 1022.1 |
| 20260510081901 | 47 | 81 | 5.0 | 9.0 | 0.00 | 0.06 | 0.00 | 74 | 1022.1 |
| 20260510080901 | 45 | 358 | 3.0 | 8.0 | 0.00 | 0.06 | 0.00 | 73 | 1022.1 |
| 20260510080401 | 45 | 47 | 3.0 | 12.0 | 0.00 | 0.06 | 0.00 | 73 | 1022.1 |
| 20260510075901 | 46 | 10 | 3.0 | 6.0 | 0.00 | 0.06 | 0.00 | 74 | 1022.1 |
| 20260510075401 | 46 | 59 | 3.0 | 7.0 | 0.00 | 0.06 | 0.00 | 74 | 1022.1 |
| 20260510074901 | 46 | 142 | 2.0 | 9.0 | 0.00 | 0.06 | 0.00 | 75 | 1022.0 |
| 20260510074400 | 46 | 55 | 1.0 | 3.0 | 0.00 | 0.06 | 0.00 | 78 | 1022.1 |
| 20260510073902 | 45 | 16 | 2.0 | 6.0 | 0.00 | 0.06 | 0.00 | 77 | 1022.1 |
| 20260510073401 | 45 | 52 | 3.0 | 9.0 | 0.00 | 0.06 | 0.00 | 78 | 1022.1 |
| 20260510072901 | 45 | 327 | 2.0 | 3.0 | 0.00 | 0.06 | 0.00 | 78 | 1022.1 |
| 20260510072401 | 44 | 341 | 2.0 | 12.0 | 0.00 | 0.06 | 0.00 | 78 | 1022.1 |
| 20260510071901 | 44 | 73 | 2.0 | 8.0 | 0.00 | 0.06 | 0.00 | 78 | 1022.0 |
| 20260510071401 | 44 | 238 | 2.0 | 7.0 | 0.00 | 0.06 | 0.00 | 79 | 1022.0 |
| 20260510070901 | 44 | 147 | 3.0 | 6.0 | 0.00 | 0.06 | 0.00 | 79 | 1021.9 |
| 20260510070401 | 44 | 325 | 3.0 | 6.0 | 0.00 | 0.06 | 0.00 | 80 | 1021.8 |
| 20260510065901 | 43 | 175 | 1.0 | 3.0 | 0.00 | 0.06 | 0.00 | 81 | 1021.8 |
| 20260510065401 | 43 | 89 | 2.0 | 9.0 | 0.00 | 0.06 | 0.00 | 81 | 1021.8 |
| 20260510064401 | 43 | 16 | 3.0 | 6.0 | 0.00 | 0.06 | 0.00 | 81 | 1021.7 |
| 20260510063901 | 43 | 190 | 2.0 | 7.0 | 0.00 | 0.06 | 0.00 | 82 | 1021.7 |
| 20260510063400 | 43 | 56 | 2.0 | 7.0 | 0.00 | 0.06 | 0.00 | 82 | 1021.7 |
| 20260510062902 | 42 | 55 | 4.0 | 8.0 | 0.00 | 0.06 | 0.00 | 83 | 1021.6 |
| 20260510061901 | 42 | 347 | 2.0 | 7.0 | 0.00 | 0.06 | 0.00 | 84 | 1021.5 |
| 20260510061401 | 42 | 4 | 3.0 | 7.0 | 0.00 | 0.06 | 0.00 | 84 | 1021.5 |
| 20260510060901 | 41 | 43 | 1.0 | 7.0 | 0.00 | 0.07 | 0.00 | 85 | 1021.4 |
| 20260510060400 | 41 | 18 | 2.0 | 7.0 | 0.00 | 0.07 | 0.00 | 86 | 1021.4 |
| 20260510055901 | 40 | 80 | 2.0 | 6.0 | 0.00 | 0.07 | 0.00 | 88 | 1021.5 |
| 20260510055400 | 40 | 335 | 2.0 | 7.0 | 0.00 | 0.07 | 0.00 | 89 | 1021.6 |
| 20260510054901 | 39 | 86 | 1.0 | 3.0 | 0.00 | 0.07 | 0.00 | 89 | 1021.6 |
| 20260510054401 | 39 | 71 | 1.0 | 3.0 | 0.00 | 0.07 | 0.00 | 89 | 1021.6 |
| 20260510053901 | 39 | 105 | 1.0 | 5.0 | 0.00 | 0.07 | 0.00 | 89 | 1021.7 |
| 20260510052900 | 39 | 236 | 1.0 | 3.0 | 0.00 | 0.07 | 0.00 | 89 | 1021.7 |
| 20260510052400 | 39 | 243 | 1.0 | 5.0 | 0.00 | 0.07 | 0.00 | 89 | 1021.7 |
| 20260510051400 | 39 | 249 | 3.0 | 5.0 | 0.00 | 0.07 | 0.00 | 89 | 1021.7 |
| 20260510050901 | 39 | 270 | 0.0 | 3.0 | 0.00 | 0.07 | 0.00 | 89 | 1021.8 |
| 20260510050402 | 38 | 270 | 1.0 | 2.0 | 0.00 | 0.07 | 0.00 | 89 | 1021.8 |
| 20260510045901 | 38 | 270 | 1.0 | 3.0 | 0.00 | 0.07 | 0.00 | 89 | 1021.9 |
| 20260510045401 | 39 | 270 | 0.0 | 2.0 | 0.00 | 0.07 | 0.00 | 89 | 1021.8 |
| 20260510044902 | 38 | 270 | 1.0 | 3.0 | 0.00 | 0.07 | 0.00 | 88 | 1021.9 |
| 20260510044401 | 39 | 298 | 0.0 | 1.0 | 0.00 | 0.07 | 0.00 | 88 | 1021.9 |
| 20260510043901 | 39 | 342 | 1.0 | 2.0 | 0.00 | 0.07 | 0.00 | 87 | 1021.9 |
| 20260510043401 | 39 | 342 | 0.0 | 2.0 | 0.00 | 0.07 | 0.00 | 87 | 1022.0 |
| 20260510042900 | 39 | 342 | 1.0 | 2.0 | 0.00 | 0.07 | 0.00 | 87 | 1022.0 |
| 20260510042400 | 39 | 347 | 1.0 | 3.0 | 0.00 | 0.07 | 0.00 | 87 | 1022.2 |
| 20260510041901 | 40 | 261 | 1.0 | 3.0 | 0.00 | 0.07 | 0.00 | 88 | 1022.2 |
| 20260510040901 | 40 | 285 | 2.0 | 5.0 | 0.00 | 0.07 | 0.00 | 88 | 1022.2 |
| 20260510040401 | 40 | 175 | 2.0 | 6.0 | 0.00 | 0.07 | 0.00 | 87 | 1022.2 |
| 20260510035901 | 40 | 249 | 0.0 | 3.0 | 0.00 | 0.07 | 0.00 | 87 | 1022.2 |
| 20260510035400 | 40 | 230 | 2.0 | 6.0 | 0.00 | 0.07 | 0.00 | 87 | 1022.2 |
| 20260510034901 | 40 | 150 | 1.0 | 3.0 | 0.00 | 0.07 | 0.00 | 87 | 1022.2 |
| 20260510034401 | 40 | 122 | 1.0 | 5.0 | 0.00 | 0.07 | 0.00 | 87 | 1022.2 |
| 20260510033400 | 40 | 317 | 2.0 | 3.0 | 0.00 | 0.07 | 0.00 | 87 | 1022.3 |
| 20260510032900 | 41 | 263 | 1.0 | 3.0 | 0.00 | 0.07 | 0.00 | 86 | 1022.3 |
| 20260510032401 | 41 | 201 | 1.0 | 3.0 | 0.00 | 0.07 | 0.00 | 86 | 1022.3 |
| 20260510031901 | 41 | 133 | 1.0 | 3.0 | 0.00 | 0.07 | 0.00 | 86 | 1022.4 |
| 20260510030400 | 41 | 32 | 2.0 | 7.0 | 0.00 | 0.07 | 0.00 | 86 | 1022.2 |
| 20260510025901 | 41 | 94 | 2.0 | 7.0 | 0.00 | 0.07 | 0.00 | 86 | 1022.1 |
| 20260510025401 | 41 | 145 | 2.0 | 8.0 | 0.00 | 0.07 | 0.00 | 86 | 1022.0 |
| 20260510023901 | 41 | 320 | 3.0 | 12.0 | 0.00 | 0.07 | 0.00 | 87 | 1021.7 |
| 20260510023401 | 42 | 21 | 3.0 | 12.0 | 0.00 | 0.07 | 0.00 | 87 | 1021.6 |
| 20260510022400 | 42 | 350 | 5.0 | 14.0 | 0.00 | 0.07 | 0.00 | 86 | 1021.6 |
| 20260510021901 | 42 | 3 | 3.0 | 13.0 | 0.00 | 0.07 | 0.00 | 87 | 1021.5 |
| 20260510021400 | 42 | 15 | 5.0 | 10.0 | 0.00 | 0.07 | 0.00 | 87 | 1021.5 |
| 20260510015901 | 42 | 357 | 3.0 | 10.0 | 0.00 | 0.07 | 0.00 | 87 | 1021.6 |
| 20260510015400 | 42 | 17 | 4.0 | 12.0 | 0.00 | 0.07 | 0.00 | 87 | 1021.6 |
| 20260510014901 | 42 | 158 | 4.0 | 9.0 | 0.00 | 0.07 | 0.00 | 87 | 1021.6 |
| 20260510014400 | 42 | 48 | 3.0 | 13.0 | 0.00 | 0.07 | 0.00 | 87 | 1021.6 |
| 20260510013901 | 42 | 15 | 5.0 | 12.0 | 0.00 | 0.07 | 0.00 | 87 | 1021.5 |
| 20260510012401 | 42 | 39 | 5.0 | 10.0 | 0.00 | 0.07 | 0.00 | 88 | 1021.5 |
| 20260510011401 | 42 | 22 | 6.0 | 13.0 | 0.00 | 0.07 | 0.00 | 88 | 1021.4 |
| 20260510010901 | 42 | 0 | 6.0 | 16.0 | 0.00 | 0.07 | 0.00 | 88 | 1021.5 |
| 20260510010400 | 42 | 342 | 5.0 | 10.0 | 0.00 | 0.07 | 0.00 | 88 | 1021.5 |
| 20260510005900 | 42 | 28 | 6.0 | 12.0 | 0.00 | 0.07 | 0.00 | 88 | 1021.5 |
| 20260510005400 | 43 | 1 | 6.0 | 26.0 | 0.00 | 0.07 | 0.00 | 87 | 1021.5 |
| 20260510004401 | 43 | 355 | 5.0 | 12.0 | 0.00 | 0.07 | 0.00 | 87 | 1021.6 |
| 20260510003401 | 43 | 6 | 6.0 | 14.0 | 0.00 | 0.07 | 0.00 | 87 | 1021.7 |
| 20260510002900 | 43 | 8 | 5.0 | 8.0 | 0.00 | 0.07 | 0.00 | 86 | 1021.8 |
| 20260510002401 | 43 | 20 | 5.0 | 13.0 | 0.00 | 0.07 | 0.00 | 87 | 1021.9 |
| 20260510001900 | 43 | 20 | 5.0 | 23.0 | 0.00 | 0.07 | 0.00 | 86 | 1021.9 |
| 20260510001400 | 43 | 18 | 6.0 | 13.0 | 0.00 | 0.07 | 0.00 | 86 | 1021.9 |
| 20260510000901 | 43 | 2 | 6.0 | 15.0 | 0.00 | 0.07 | 0.00 | 86 | 1021.8 |
| 20260510000400 | 44 | 23 | 5.0 | 14.0 | 0.00 | 0.07 | 0.00 | 86 | 1021.8 |
| 20260509235901 | 44 | 25 | 6.0 | 12.0 | 0.00 | 0.07 | 0.00 | 86 | 1021.7 |
| 20260509235400 | 44 | 337 | 3.0 | 13.0 | 0.00 | 0.07 | 0.00 | 86 | 1021.7 |
| 20260509234901 | 44 | 3 | 5.0 | 15.0 | 0.00 | 0.07 | 0.00 | 86 | 1021.7 |
| 20260509234400 | 44 | 19 | 6.0 | 13.0 | 0.00 | 0.07 | 0.00 | 86 | 1021.7 |
| 20260509233901 | 44 | 14 | 5.0 | 12.0 | 0.00 | 0.07 | 0.00 | 86 | 1021.7 |
| 20260509233400 | 44 | 8 | 6.0 | 17.0 | 0.00 | 0.07 | 0.00 | 85 | 1021.8 |
| 20260509232900 | 44 | 6 | 6.0 | 17.0 | 0.00 | 0.07 | 0.00 | 85 | 1021.8 |
| 20260509232400 | 44 | 24 | 6.0 | 15.0 | 0.00 | 0.07 | 0.00 | 85 | 1021.8 |
| 20260509231900 | 44 | 1 | 6.0 | 12.0 | 0.00 | 0.07 | 0.00 | 85 | 1021.8 |
| 20260509231400 | 44 | 27 | 6.0 | 13.0 | 0.00 | 0.07 | 0.00 | 85 | 1021.8 |
| 20260509230946 | 44 | 19 | 6.0 | 13.0 | 0.00 | 0.07 | 0.00 | 85 | 1021.7 |
| 20260509230400 | 44 | 355 | 6.0 | 18.0 | 0.00 | 0.07 | 0.00 | 85 | 1021.7 |
| 20260509225901 | 44 | 22 | 6.0 | 15.0 | 0.00 | 0.07 | 0.07 | 85 | 1021.6 |
| 20260509225400 | 44 | 0 | 5.0 | 13.0 | 0.00 | 0.07 | 0.07 | 86 | 1021.7 |
| 20260509224901 | 44 | 16 | 7.0 | 13.0 | 0.00 | 0.07 | 0.07 | 86 | 1021.7 |
| 20260509224400 | 44 | 4 | 7.0 | 14.0 | 0.00 | 0.07 | 0.07 | 86 | 1021.6 |
| 20260509223901 | 44 | 27 | 8.0 | 14.0 | 0.00 | 0.07 | 0.07 | 86 | 1021.6 |
| 20260509223400 | 44 | 0 | 7.0 | 13.0 | 0.00 | 0.07 | 0.07 | 86 | 1021.6 |
| 20260509222400 | 44 | 18 | 8.0 | 14.0 | 0.00 | 0.07 | 0.07 | 87 | 1021.6 |
| 20260509221901 | 44 | 1 | 6.0 | 16.0 | 0.00 | 0.07 | 0.07 | 87 | 1021.6 |
| 20260509221400 | 44 | 15 | 9.0 | 16.0 | 0.00 | 0.07 | 0.07 | 87 | 1021.6 |
| 20260509220401 | 44 | 345 | 5.0 | 12.0 | 0.00 | 0.07 | 0.07 | 86 | 1021.7 |
| 20260509215901 | 44 | 13 | 8.0 | 18.0 | 0.00 | 0.07 | 0.07 | 86 | 1021.8 |
| 20260509214901 | 44 | 10 | 6.0 | 12.0 | 0.00 | 0.07 | 0.07 | 86 | 1021.7 |
| 20260509214400 | 44 | 8 | 6.0 | 14.0 | 0.00 | 0.07 | 0.07 | 86 | 1021.8 |
| 20260509213901 | 44 | 14 | 8.0 | 17.0 | 0.00 | 0.07 | 0.07 | 86 | 1021.9 |
| 20260509213400 | 44 | 10 | 6.0 | 17.0 | 0.00 | 0.07 | 0.07 | 86 | 1021.8 |
| 20260509212401 | 44 | 23 | 6.0 | 12.0 | 0.00 | 0.07 | 0.07 | 86 | 1021.7 |
| 20260509211900 | 44 | 8 | 5.0 | 10.0 | 0.00 | 0.07 | 0.07 | 86 | 1021.7 |
| 20260509211400 | 44 | 0 | 6.0 | 12.0 | 0.00 | 0.07 | 0.07 | 85 | 1021.8 |
| 20260509210900 | 44 | 19 | 6.0 | 13.0 | 0.00 | 0.07 | 0.07 | 86 | 1021.8 |
| 20260509210400 | 44 | 358 | 7.0 | 16.0 | 0.00 | 0.07 | 0.07 | 86 | 1021.7 |
| 20260509205901 | 44 | 358 | 5.0 | 14.0 | 0.00 | 0.07 | 0.07 | 86 | 1021.7 |
| 20260509205400 | 44 | 24 | 6.0 | 16.0 | 0.00 | 0.07 | 0.07 | 85 | 1021.7 |
| 20260509204901 | 44 | 10 | 7.0 | 14.0 | 0.00 | 0.07 | 0.07 | 85 | 1021.7 |
| 20260509204400 | 44 | 7 | 6.0 | 14.0 | 0.00 | 0.07 | 0.07 | 85 | 1021.6 |
| 20260509203901 | 44 | 13 | 6.0 | 12.0 | 0.00 | 0.07 | 0.07 | 86 | 1021.7 |
| 20260509203401 | 44 | 19 | 5.0 | 12.0 | 0.00 | 0.07 | 0.07 | 86 | 1021.7 |